Weather History for Gillam, MB

Change the Weather History Date:

Wednesday, December 5, 2012

  Actual Average Record
Temperature  
Mean Temperature 7 °F -  
Max Temperature 14 °F 2 °F 19 °F (1996)
Min Temperature 0 °F -9 °F -25 °F (2011)
Degree Days  
Heating Degree Days 58    
Moisture  
Dew Point 6 °F    
Average Humidity 92    
Maximum Humidity 100    
Minimum Humidity 84    
Precipitation  
Precipitation 0.12 in 0.03 in - ()
Sea Level Pressure  
Sea Level Pressure 29.97 in    
Wind  
Wind Speed 7 mph ()    
Max Wind Speed 15 mph    
Max Gust Speed 23 mph    
Visibility 7.2 miles    
Events Snow    
Averages and records for this station are not official NWS values.
T = Trace of Precipitation, MM = Missing Value Source: Averaged Metar Reports

Daily Weather History Graph

Daily Weather History Graph

Search for Another Location

Airport:

Trip Planner

Search our weather history database for the weather conditions in past years. The results will help you decide how hot, cold, wet, or windy it might be!

Date:

Astronomy

Dec. 05, 2012 Rise Set
Actual Time 8:35 AM CST 3:44 PM CST
Civil Twilight 7:48 AM CST 4:30 PM CST
Nautical Twilight 6:59 AM CST 5:19 PM CST
Astronomical Twilight 6:13 AM CST 6:05 PM CST
Moon 11:34 PM CST (12/5) 12:04 PM CST (12/5)
Length of Visible Light 8h 42m
Length of Day
7h 08m
Waning Gibbous, 59% of the Moon is Illuminated
Dec 5
Waning Gibbous
Dec 6
Last Quarter
Dec 13
New
Dec 19
First Quarter
Dec 28
Full

Hourly Weather History & Observations

Time (CST) Temp. Windchill Dew Point Humidity Pressure Visibility Wind Dir Wind Speed Gust Speed Precip Events Conditions
12:00 AM 1 °F - -0 °F 92% 30.41 in 15 mi SSE 3.5 mph - -   Partly Cloudy
12:00 AM 1.4 °F - -0.4 °F 92% 30.41 in 15.0 mi SE 2.3 mph - N/A   Overcast
12:46 AM - - - N/A% - 15.0 mi SE 2.3 mph - N/A   Unknown
1:00 AM -0.4 °F -10.4 °F -0.4 °F 100% 30.40 in 15.0 mi ESE 4.6 mph - N/A Snow Light Snow
2:00 AM -0.4 °F -8.3 °F -0.4 °F 100% 30.40 in 15.0 mi ESE 3.5 mph - N/A Snow Light Snow
2:39 AM - - - N/A% - 15.0 mi ESE 3.5 mph - N/A   Unknown
3:00 AM -0.4 °F -10.4 °F -0.4 °F 100% 30.37 in 15.0 mi ESE 4.6 mph - N/A Snow Light Snow
4:00 AM 1.4 °F -12.5 °F -0.4 °F 92% 30.34 in 15.0 mi SSE 8.1 mph - N/A Snow Light Snow
5:00 AM 3.2 °F -7.8 °F 1.4 °F 92% 30.30 in 15.0 mi SSE 5.8 mph - N/A Snow Light Snow
6:00 AM 3 °F - 1 °F 88% 30.25 in 15 mi SE 8.1 mph - - Snow Light Snow
6:00 AM 3.2 °F -11.3 °F 1.4 °F 92% 30.25 in 15.0 mi SE 9.2 mph - N/A Snow Light Snow
7:00 AM 3.2 °F -13.1 °F 1.4 °F 92% 30.20 in 15.0 mi SE 11.5 mph - N/A Snow Light Snow
9:00 AM 5.0 °F -10.8 °F 3.2 °F 92% 30.12 in 15.0 mi SE 11.5 mph - N/A Snow Light Snow
9:06 AM - - - N/A% - 15.0 mi SE 11.5 mph - N/A   Unknown
10:00 AM 6.8 °F -8.6 °F 5.0 °F 92% 30.06 in 5.0 mi SE 11.5 mph - N/A Snow Light Snow
10:17 AM - - - N/A% - 2.0 mi ESE 13.8 mph - N/A   Unknown
10:20 AM - - - N/A% - 1.0 mi ESE 13.8 mph - N/A   Unknown
10:40 AM - - - N/A% - 2.0 mi ESE 10.4 mph - N/A   Unknown
10:53 AM - - - N/A% - 3.0 mi SE 11.5 mph - N/A   Unknown
11:00 AM 8.6 °F -6.3 °F 6.8 °F 92% 30.01 in 3.0 mi SE 11.5 mph 19.6 mph N/A Snow Light Snow
11:08 AM - - - N/A% - 1.0 mi SE 11.5 mph 17.3 mph N/A   Unknown
11:12 AM - - - N/A% - 0.8 mi SE 11.5 mph 17.3 mph N/A   Unknown
12:00 PM 9 °F - 7 °F 88% 29.92 in 1 mi SSE 13.8 mph - - Snow Light Snow
12:00 PM 8.6 °F -7.7 °F 6.8 °F 92% 29.92 in 0.8 mi SE 13.8 mph 19.6 mph N/A Snow Light Snow
12:11 PM - - - N/A% - 0.5 mi SE 11.5 mph 19.6 mph N/A   Unknown
12:32 PM - - - N/A% - 0.2 mi ESE 13.8 mph 19.6 mph N/A   Unknown
12:43 PM - - - N/A% - 0.5 mi ESE 15.0 mph 21.9 mph N/A   Unknown
1:00 PM 10.4 °F -5.4 °F 6.8 °F 85% 29.84 in 0.8 mi SE 13.8 mph 21.9 mph N/A Snow Light Snow
1:34 PM - - - N/A% - 1.5 mi SE 15.0 mph 23.0 mph N/A   Unknown
1:54 PM - - - N/A% - 3.0 mi SE 11.5 mph 17.3 mph N/A   Light Freezing Drizzle
2:00 PM 10.4 °F -5.4 °F 8.6 °F 92% 29.82 in 3.0 mi SE 13.8 mph 20.7 mph N/A Snow Light Snow
2:15 PM - - - N/A% - 0.8 mi SE 11.5 mph 17.3 mph N/A   Unknown
3:00 PM 10.4 °F -5.4 °F 8.6 °F 92% 29.76 in 1.0 mi SE 13.8 mph 20.7 mph N/A Snow Light Snow
3:20 PM - - - N/A% - 3.0 mi SE 15.0 mph 23.0 mph N/A   Unknown
4:00 PM 12.2 °F -1.8 °F 8.6 °F 85% 29.73 in 3.0 mi SE 11.5 mph 17.3 mph N/A Snow Light Snow
4:44 PM - - - N/A% - 5.0 mi SE 11.5 mph 17.3 mph N/A   Unknown
5:00 PM 12.2 °F -1.0 °F 10.4 °F 92% 29.67 in 5.0 mi SSE 10.4 mph - N/A Snow Light Snow
6:00 PM 13 °F - 10 °F 84% 29.64 in 7 mi SE 9.2 mph - - Snow Light Snow
6:00 PM 12.2 °F -0.2 °F 10.4 °F 92% 29.64 in 8.0 mi SE 9.2 mph - N/A Snow Light Snow
7:00 PM 14.0 °F 2.9 °F 10.4 °F 86% 29.60 in 8.0 mi SE 8.1 mph - N/A Snow Light Snow
8:00 PM 14.0 °F 8.2 °F 12.2 °F 93% 29.58 in 8.0 mi SE 3.5 mph - N/A Snow Light Snow
9:00 PM 14.0 °F - 12.2 °F 93% 29.54 in 10.0 mi Calm Calm - N/A Snow Light Snow
10:00 PM 12.2 °F 6.1 °F 12.2 °F 100% 29.53 in 10.0 mi NE 3.5 mph - N/A Snow Light Snow
11:00 PM 12.2 °F - 12.2 °F 100% 29.51 in 10.0 mi Calm Calm - N/A Snow Light Snow